Weather History for Kecskemet, Hungary

Change the Weather History Date:

Thursday, June 13, 2013

  Actual Average (LHBP) Record (LHBP)
Temperature  
Mean Temperature 68 °F -  
Max Temperature 80 °F 76 °F 93 °F (2000)
Min Temperature 55 °F 55 °F 42 °F (2001)
Cooling Degree Days 2    
Growing Degree Days 18 (Base 50)    
Moisture  
Dew Point 53 °F    
Average Humidity 60    
Maximum Humidity 82    
Minimum Humidity 37    
Precipitation  
Precipitation 0.00 in - - ()
Sea Level Pressure  
Sea Level Pressure 30.05 in    
Wind  
Wind Speed 6 mph ()    
Max Wind Speed 13 mph    
Max Gust Speed -    
Visibility 6.2 miles    
Events      
Averages and records for this station are not official NWS values.
T = Trace of Precipitation, MM = Missing Value Source: Averaged Metar Reports

Daily Weather History Graph

Daily Weather History Graph

Search for Another Location

Airport:

Trip Planner

Search our weather history database for the weather conditions in past years. The results will help you decide how hot, cold, wet, or windy it might be!

Date:

Astronomy

Jun. 13, 2013 Rise Set
Actual Time 4:45 AM CEST 8:36 PM CEST
Civil Twilight 4:06 AM CEST 9:16 PM CEST
Nautical Twilight 3:12 AM CEST 10:10 PM CEST
Astronomical Twilight 1:53 AM CEST 11:29 PM CEST
Moon 9:18 AM CEST (6/13) 11:17 PM CEST (6/13)
Length of Visible Light 17h 09m
Length of Day
15h 50m
Waxing Crescent, 19% of the Moon is Illuminated
Jun 13
Waxing Crescent
Jun 16
First Quarter
Jun 23
Full
Jun 30
Last Quarter
Jul 8
New

Hourly Weather History & Observations

Time (CEST) Temp. Dew Point Humidity Pressure Visibility Wind Dir Wind Speed Gust Speed Precip Events Conditions
12:15 AM 62.6 °F 51.8 °F 68% 30.06 in - North 6.7 mph - N/A   Clear
12:45 AM 60.8 °F 51.8 °F 72% 30.04 in - North 6.7 mph - N/A   Clear
1:15 AM 60.8 °F 51.8 °F 72% 30.06 in - NNW 6.7 mph - N/A   Clear
1:45 AM 60.8 °F 51.8 °F 72% 30.04 in - NNW 6.7 mph - N/A   Clear
2:15 AM 59.0 °F 51.8 °F 77% 30.04 in - NNW 6.7 mph - N/A   Clear
2:45 AM 55.4 °F 50.0 °F 82% 30.04 in - NNW 6.7 mph - N/A   Clear
3:15 AM 55.4 °F 50.0 °F 82% 30.04 in - NW 6.7 mph - N/A   Clear
3:45 AM - - N/A% - 6.2 mi North 4.5 mph - N/A   Clear
4:15 AM 55.4 °F 50.0 °F 82% 30.06 in - NNW 4.5 mph - N/A   Clear
4:45 AM 55.4 °F 50.0 °F 82% 30.06 in - NNW 4.5 mph - N/A   Clear
5:15 AM 55.4 °F 50.0 °F 82% 30.06 in - NW 6.7 mph - N/A   Clear
5:45 AM 59.0 °F 50.0 °F 72% 30.06 in - NW 6.7 mph - N/A   Clear
6:15 AM 60.8 °F 50.0 °F 68% 30.06 in - North 4.5 mph - N/A   Clear
6:45 AM - - N/A% - 6.2 mi North 8.9 mph - N/A   Clear
7:15 AM 64.4 °F 50.0 °F 59% 30.06 in - North 8.9 mph - N/A   Clear
7:45 AM 66.2 °F 50.0 °F 56% 30.06 in - North 11.2 mph - N/A   Clear
8:15 AM 68.0 °F 51.8 °F 56% 30.09 in - North 13.4 mph - N/A   Clear
8:45 AM 68.0 °F 53.6 °F 60% 30.09 in - NNE 11.2 mph - N/A   Clear
9:15 AM 69.8 °F 53.6 °F 56% 30.09 in - NE 11.2 mph - N/A   Clear
9:45 AM - - N/A% - 6.2 mi North 8.9 mph - N/A   Clear
10:15 AM 73.4 °F 55.4 °F 53% 30.09 in - NE 8.9 mph - N/A   Clear
10:45 AM 73.4 °F 57.2 °F 57% 30.06 in 6.2 mi North 11.2 mph - N/A   Partly Cloudy
11:15 AM 75.2 °F 55.4 °F 50% 30.06 in 6.2 mi North 8.9 mph - N/A   Partly Cloudy
11:45 AM 75.2 °F 55.4 °F 50% 30.06 in 6.2 mi North 8.9 mph - N/A   Partly Cloudy
12:15 PM 77.0 °F 55.4 °F 47% 30.06 in 6.2 mi NNE 6.7 mph - N/A   Partly Cloudy
12:45 PM - - N/A% - - NNE 8.9 mph - N/A   Clear
1:15 PM 77.0 °F 53.6 °F 44% 30.06 in - NNE 6.7 mph - N/A   Clear
1:45 PM 78.8 °F 57.2 °F 47% 30.06 in - North 6.7 mph - N/A   Clear
2:15 PM 77.0 °F 53.6 °F 44% 30.06 in - NE 6.7 mph - N/A   Clear
2:45 PM 78.8 °F 53.6 °F 42% 30.06 in - NNE 6.7 mph - N/A   Clear
3:15 PM 78.8 °F 51.8 °F 39% 30.04 in - North 6.7 mph - N/A   Clear
3:45 PM - - N/A% - - North 8.9 mph - N/A   Clear
4:15 PM 78.8 °F 53.6 °F 42% 30.04 in - North 6.7 mph - N/A   Clear
4:45 PM 80.6 °F 51.8 °F 37% 30.04 in - North 4.5 mph - N/A   Clear
5:15 PM 77.0 °F 53.6 °F 44% 30.01 in - NNE 4.5 mph - N/A   Clear
5:45 PM 78.8 °F 53.6 °F 42% 30.01 in - NE 6.7 mph - N/A   Clear
6:15 PM 78.8 °F 51.8 °F 39% 30.01 in - North 6.7 mph - N/A   Clear
6:45 PM 78.8 °F 51.8 °F 39% 30.01 in - North 4.5 mph - N/A   Clear
7:15 PM 77.0 °F 53.6 °F 44% 30.01 in - NNE 4.5 mph - N/A   Clear
7:45 PM 77.0 °F 55.4 °F 47% 30.01 in - NE 2.2 mph - N/A   Clear
8:15 PM 73.4 °F 55.4 °F 53% 30.01 in - NNE 2.2 mph - N/A   Clear
8:45 PM 69.8 °F 55.4 °F 60% 30.04 in - Calm Calm - N/A   Clear
9:15 PM 68.0 °F 55.4 °F 64% 30.04 in - Calm Calm - N/A   Clear
9:45 PM 64.4 °F 55.4 °F 73% 30.04 in - Calm Calm - N/A   Clear
10:15 PM 64.4 °F 57.2 °F 77% 30.04 in - Calm Calm - N/A   Clear
10:45 PM 62.6 °F 55.4 °F 77% 30.04 in - Calm Calm - N/A   Clear
11:15 PM 62.6 °F 55.4 °F 77% 30.04 in - West 4.5 mph - N/A   Clear
11:45 PM 60.8 °F 55.4 °F 82% 30.04 in - West 4.5 mph - N/A   Clear